Content
SEND FEEDBACK

Daily
Averages
Monthly
Summary
Canada

ST. ALEXIS DES MONTS, QUEBEC


Home > North America > Canada > Quebec
Elevation: 600 feet     Latitude: 46 32N     Longitude: 73 09W

WEATHER
 
SELECT A DAY
Number of Records: 131,070;   Date Range: 12/29/99 - 7/23/14
 
SHARE

PRINT THIS DATA

[ ← Previous Day ]
WEATHER ALMANAC - JANUARY 3, 2013
[ Next Day → ]
[ °C ]   °F
Weather ElementAverageHighLow
Temperature-3.5 °F0.5 °F (3:00 pm)-8.1 °F (4:00 am)
Dewpoint-10.9 °F-5 °F (8:00 pm)-15.7 °F (4:00 am)
Humidity68.9 %83 % (10:00 pm)51 % (2:00 pm)
Barometer30.11 in30.24 in (3:00 am)29.92 in (11:00 pm)
Wind Speed4.2 mph8.1 mph (4:00 pm)
Weather ElementAverage
Wind DirectionSW (221.9 °)

Weather ElementTotal
Precipitation---
Heating Degree Days68.8 (Base 65)
Averaged from 27 records on January 3, 2013
WEATHER CONDITIONS BREAKOUT
WIND DIRECTION BREAKOUT
WEATHER BY HOUR - JANUARY 3, 2013
[ °C ]   °F
Local TimeTemperatureDewpointHumidityBarometerVisibilityWind DirectionWind SpeedGust SpeedPrecipitationEventsConditions
1:00 AM-6.9 °F-14.4 °F70 %30.22 inWest (260°)2.3 mph
2:00 AM-7.0 °F-15.0 °F54 %30.22 inWest (260°)2.3 mph
2:00 AM-7.4 °F-15.0 °F70 %30.22 inWest (260°)2.3 mph
3:00 AM-7.4 °F-15.0 °F70 %30.24 inWest (260°)3.5 mph
4:00 AM-8.1 °F-15.7 °F70 %30.23 inWNW (300°)2.3 mph
5:00 AM-7.6 °F-14.4 °F72 %30.23 inWSW (250°)4.6 mph
6:00 AM-6.9 °F-14.8 °F68 %30.21 inWNW (290°)1.2 mph
7:00 AM-6.7 °F-14.4 °F69 %30.19 inNW (310°)3.5 mph
8:00 AM-6.0 °F-14.0 °F53 %30.19 inWest (270°)4.6 mph
8:00 AM-6.2 °F-14.3 °F68 %30.19 inWest (270°)4.6 mph
9:00 AM-6.3 °F-14.4 °F68 %30.19 inWNW (290°)2.3 mph
10:00 AM-5.4 °F-13.9 °F67 %30.18 inWNW (290°)3.5 mph
11:00 AM-4.2 °F-13.4 °F65 %30.17 inWNW (290°)3.5 mph
12:00 PM-2.4 °F-12.1 °F63 %30.14 inWest (260°)2.3 mph
1:00 PM-0.8 °F-10.8 °F62 %30.11 inWSW (240°)6.9 mph
2:00 PM0.0 °F-9.0 °F51 %30.08 inSSE (160°)6.9 mph
2:00 PM0.0 °F-9.0 °F66 %30.08 inSSE (160°)6.9 mph
3:00 PM0.5 °F-8.7 °F65 %30.06 inWSW (240°)4.6 mph
4:00 PM-0.4 °F-9.2 °F66 %30.05 inSSE (160°)8.1 mph
5:00 PM0.0 °F-8.7 °F67 %30.03 inSSW (210°)8.1 mph
6:00 PM0.0 °F-6.3 °F75 %30.02 inSSW (200°)6.9 mph
7:00 PM-0.6 °F-5.4 °F80 %30.00 inSSE (160°)3.5 mph
8:00 PM-1.0 °F-5.0 °F73 %29.98 inSE (140°)4.6 mph
8:00 PM-0.6 °F-5.3 °F81 %29.98 inSE (140°)4.6 mph
9:00 PM-0.6 °F-5.4 °F80 %29.96 inSSE (150°)4.6 mph
10:00 PM-1.5 °F-5.6 °F83 %29.94 inESE (120°)3.5 mph
11:00 PM-2.0 °F-6.0 °F83 %29.92 inNE (50°)2.3 mph
Hourly data recorded from CXSH, located miles away from St. Alexis Des Monts, Quebec







STORIES FROM OUR PARTNERS